FW7458 Weather Reports


Display with metric or nautical units.
time (UTC)temp
F
wind
direction
speed
MPH
gust
MPH
rain 1hr
in
rain 24hr
in
rain mn
in
humidity
%
barometer
mb
20260505111502 52 42 5.0 13.0 0.00 0.07 0.07 84 1006.5
20260505111002 52 9 3.0 15.0 0.00 0.07 0.07 84 1006.0
20260505110502 52 24 4.0 15.0 0.00 0.07 0.07 84 1006.0
20260505102003 53 38 9.0 15.0 0.00 0.07 0.07 84 1005.8
20260505101515 53 9 7.0 13.0 0.00 0.07 0.07 84 1006.1
20260505101004 53 352 7.0 14.0 0.00 0.07 0.07 84 1006.2
20260505100502 53 46 5.0 14.0 0.00 0.07 0.07 84 1005.8
20260505100004 53 35 3.0 12.0 0.00 0.07 0.07 84 1005.6
20260505095502 53 39 5.0 12.0 0.00 0.07 0.07 84 1005.4
20260505095002 53 5 5.0 11.0 0.00 0.07 0.07 84 1005.4
20260505094503 53 53 4.0 12.0 0.00 0.07 0.07 84 1005.7
20260505094003 54 74 5.0 12.0 0.00 0.07 0.07 84 1005.8
20260505093503 54 13 5.0 13.0 0.00 0.07 0.07 83 1005.8
20260505093006 54 352 5.0 19.0 0.00 0.07 0.07 83 1005.8
20260505092503 54 32 8.0 19.0 0.01 0.07 0.07 84 1006.0
20260505092004 54 9 7.0 17.0 0.01 0.07 0.07 83 1006.4
20260505091510 55 348 11.0 18.0 0.01 0.07 0.07 83 1006.5
20260505091003 55 40 6.0 21.0 0.02 0.07 0.07 83 1006.4
20260505090503 56 9 7.0 21.0 0.07 0.07 0.07 83 1006.4
20260505090016 56 69 7.0 14.0 0.07 0.07 0.07 83 1006.0
20260505085507 56 360 6.0 14.0 0.07 0.07 0.07 83 1005.6
20260505085010 57 21 6.0 13.0 0.07 0.07 0.07 82 1005.6
20260505084507 57 341 8.0 13.0 0.07 0.07 0.07 82 1005.5
20260505084010 57 15 7.0 15.0 0.07 0.07 0.07 81 1004.9
20260505083502 58 19 3.0 19.0 0.07 0.07 0.07 81 1005.0
20260505083012 58 352 9.0 23.0 0.07 0.07 0.07 80 1005.0
20260505082503 59 333 4.0 23.0 0.06 0.06 0.06 79 1005.1
20260505082004 60 24 8.0 22.0 0.06 0.06 0.06 76 1004.9
20260505081508 62 23 14.0 22.0 0.06 0.06 0.06 75 1004.7
20260505081009 65 350 9.0 15.0 0.05 0.05 0.05 78 1004.4
20260505080506 66 292 6.0 10.0 0.00 0.00 0.00 78 1004.5
20260505080036 66 305 2.0 6.0 0.00 0.00 0.00 76 1003.6
20260505075503 66 237 2.0 5.0 0.00 0.00 0.00 75 1003.3
20260505075007 66 213 2.0 6.0 0.00 0.00 0.00 74 1002.9
20260505074518 67 181 3.0 6.0 0.00 0.00 0.00 73 1002.9
20260505074004 67 193 3.0 5.0 0.00 0.00 0.00 73 1002.8
20260505073508 67 168 3.0 10.0 0.00 0.00 0.00 73 1002.7
20260505073003 67 215 4.0 10.0 0.00 0.00 0.00 72 1002.8
20260505072502 67 203 3.0 10.0 0.00 0.00 0.00 72 1002.9
20260505072003 67 200 5.0 12.0 0.00 0.00 0.00 71 1002.9
20260505071508 68 175 7.0 13.0 0.00 0.00 0.00 70 1002.9
20260505071003 68 227 6.0 14.0 0.00 0.00 0.00 70 1002.6
20260505070505 68 202 7.0 12.0 0.00 0.00 0.00 69 1002.4
20260505070009 68 182 3.0 14.0 0.00 0.00 0.00 68 1002.6
20260505065503 68 202 6.0 14.0 0.00 0.00 0.00 68 1002.7
20260505065004 68 190 3.0 10.0 0.00 0.00 0.00 68 1002.8
20260505064517 68 202 3.0 10.0 0.00 0.00 0.00 68 1002.9
20260505064004 68 182 5.0 10.0 0.00 0.00 0.00 68 1002.9
20260505063507 68 148 3.0 8.0 0.00 0.00 0.00 68 1003.1
20260505063021 68 171 2.0 9.0 0.00 0.00 0.00 68 1003.3
20260505062508 68 211 4.0 9.0 0.00 0.00 0.00 68 1003.3
20260505062009 68 186 2.0 8.0 0.00 0.00 0.00 68 1003.3
20260505061504 68 176 3.0 8.0 0.00 0.00 0.00 68 1003.1
20260505061007 68 193 4.0 7.0 0.00 0.00 0.00 68 1003.1
20260505060504 68 175 2.0 7.0 0.00 0.00 0.00 67 1003.2
20260505060012 68 210 2.0 7.0 0.00 0.00 0.00 67 1003.3
20260505055505 69 161 2.0 7.0 0.00 0.00 0.00 67 1003.2
20260505055003 69 207 3.0 7.0 0.00 0.00 0.00 66 1003.1
20260505054514 69 162 2.0 8.0 0.00 0.00 0.00 66 1002.9
20260505054012 69 181 3.0 12.0 0.00 0.00 0.00 66 1003.2
20260505053506 69 165 1.0 12.0 0.00 0.00 0.00 66 1003.3
20260505053030 69 171 2.0 8.0 0.00 0.00 0.00 65 1003.4
20260505052511 69 175 2.0 8.0 0.00 0.00 0.00 65 1003.4
20260505052011 69 201 1.0 7.0 0.00 0.00 0.00 64 1003.4
20260505051524 70 155 2.0 7.0 0.00 0.00 0.00 64 1003.4
20260505051009 70 180 2.0 5.0 0.00 0.00 0.00 64 1003.5
20260505050513 70 185 1.0 7.0 0.00 0.00 0.00 64 1003.6
20260505041530 71 206 2.0 8.0 0.00 0.00 0.00 61 1003.8
20260505041007 71 188 5.0 8.0 0.00 0.00 0.00 61 1003.7
20260505040507 71 192 4.0 8.0 0.00 0.00 0.00 61 1003.7
20260505040028 71 164 3.0 6.0 0.00 0.00 0.00 61 1003.9
20260505035509 71 155 2.0 7.0 0.00 0.00 0.00 61 1004.0
20260505035010 71 184 3.0 8.0 0.00 0.00 0.00 60 1004.0
20260505034509 71 176 3.0 9.0 0.00 0.00 0.00 60 1004.2
20260505034007 71 207 3.0 12.0 0.00 0.00 0.00 60 1003.9
20260505033506 72 157 4.0 12.0 0.00 0.00 0.00 60 1003.7
20260505033017 72 157 4.0 9.0 0.00 0.00 0.00 60 1003.6
20260505032508 72 158 5.0 14.0 0.00 0.00 0.00 60 1003.6
20260505032009 72 227 5.0 16.0 0.00 0.00 0.00 60 1003.4
20260505031522 72 175 4.0 16.0 0.00 0.00 0.00 60 1003.2
20260505031008 72 185 6.0 0.0 0.00 0.00 0.00 60 1003.2
20260505030513 0 0.0 0.0 0.00 0.00 0.00 1003.1
20260505030030 0 0.0 0.0 0.00 0.00 0.00 1003.1
20260505025511 0 0.0 0.0 0.00 0.00 0.00 1003.2
20260505025009 72 0.0 0.0 0.00 0.00 0.00 60 1003.3
20260505024542 72 244 3.0 14.0 0.00 0.00 0.00 60 1003.2
20260505024007 72 158 7.0 15.0 0.00 0.00 0.00 60 1003.2
20260505023509 72 213 7.0 15.0 0.00 0.00 0.00 60 1003.3
20260505023011 73 360 5.0 15.0 0.00 0.00 0.00 59 1003.3
20260505022517 73 159 7.0 15.0 0.00 0.00 0.00 59 1003.3
20260505022013 73 178 5.0 15.0 0.00 0.00 0.00 59 1003.1
20260505021539 73 200 6.0 13.0 0.00 0.00 0.00 59 1003.0
20260505021010 73 238 5.0 12.0 0.00 0.00 0.00 58 1002.9
20260505020511 73 168 5.0 12.0 0.00 0.00 0.00 58 1002.9
20260505020028 73 145 6.0 13.0 0.00 0.00 0.00 57 1002.9
20260505015511 74 190 9.0 16.0 0.00 0.00 0.00 57 1002.9
20260505015017 74 250 5.0 15.0 0.00 0.00 0.00 57 1002.8
20260505014536 74 205 7.0 14.0 0.00 0.00 0.00 57 1002.8
20260505014010 74 215 5.0 13.0 0.00 0.00 0.00 57 1002.9
20260505013512 74 192 8.0 16.0 0.00 0.00 0.00 56 1002.8
20260505013031 74 206 11.0 16.0 0.00 0.00 0.00 57 1002.7
20260505012509 74 197 5.0 18.0 0.00 0.00 0.00 57 1002.6
20260505012009 74 217 4.0 18.0 0.00 0.00 0.00 57 1002.6
20260505011533 75 199 8.0 15.0 0.00 0.00 0.00 57 1002.6
20260505011011 75 215 8.0 17.0 0.00 0.00 0.00 57 1002.5
20260505010506 75 146 8.0 17.0 0.00 0.00 0.00 57 1002.4
20260505010041 75 203 7.0 17.0 0.00 0.00 0.00 57 1002.4
20260505005507 75 174 7.0 16.0 0.00 0.00 0.00 57 1002.4
20260505005013 75 191 9.0 24.0 0.00 0.00 0.00 57 1002.5
20260505004524 75 221 6.0 24.0 0.00 0.00 0.00 57 1002.4
20260505004009 75 209 4.0 14.0 0.00 0.00 0.00 56 1002.3
20260505003506 75 244 6.0 15.0 0.00 0.00 0.00 56 1002.3
20260505003006 76 214 7.0 15.0 0.00 0.00 0.00 56 1002.3
20260505002504 76 215 9.0 15.0 0.00 0.00 0.00 55 1002.4
20260505002004 76 179 7.0 15.0 0.00 0.00 0.00 55 1002.4
20260505001506 76 219 9.0 16.0 0.00 0.00 0.00 55 1002.3
20260505001005 76 151 9.0 20.0 0.00 0.00 0.00 55 1002.3
20260505000503 77 211 7.0 16.0 0.00 0.00 0.00 54 1002.3
20260505000009 77 215 8.0 14.0 0.00 0.00 0.00 54 1002.3
20260504235503 77 210 8.0 20.0 0.00 0.00 0.00 54 1002.3
20260504235003 77 229 9.0 19.0 0.00 0.00 0.00 54 1002.2
20260504234508 77 191 9.0 15.0 0.00 0.00 0.00 54 1002.3
20260504234003 77 203 5.0 15.0 0.00 0.00 0.00 54 1002.3
20260504233504 77 226 8.0 15.0 0.00 0.00 0.00 54 1002.4
20260504233006 77 213 7.0 23.0 0.00 0.00 0.00 54 1002.3
20260504232503 77 200 10.0 25.0 0.00 0.00 0.00 53 1002.4
20260504232003 78 146 15.0 25.0 0.00 0.00 0.00 52 1002.5
20260504231522 79 160 10.0 24.0 0.00 0.00 0.00 52 1002.5
20260504231004 79 198 8.0 24.0 0.00 0.00 0.00 52 1002.4
20260504230504 79 194 11.0 22.0 0.00 0.00 0.00 52 1002.4
20260504230008 79 155 11.0 22.0 0.00 0.00 0.00 52 1002.4
20260504225503 79 278 7.0 18.0 0.00 0.00 0.00 51 1002.3
20260504225003 80 209 11.0 23.0 0.00 0.00 0.00 51 1002.2
20260504224503 80 206 8.0 23.0 0.00 0.00 0.00 51 1002.2
20260504224003 80 188 9.0 21.0 0.00 0.00 0.00 51 1002.2
20260504223503 80 217 11.0 20.0 0.00 0.00 0.00 51 1002.2
20260504223006 80 221 9.0 20.0 0.00 0.00 0.00 50 1002.3
20260504222504 81 209 7.0 16.0 0.00 0.00 0.00 50 1002.3
20260504222004 81 209 6.0 16.0 0.00 0.00 0.00 51 1002.3
20260504221508 81 217 5.0 16.0 0.00 0.00 0.00 50 1002.3
20260504221005 80 228 7.0 19.0 0.00 0.00 0.00 50 1002.3
20260504220504 80 191 10.0 19.0 0.00 0.00 0.00 50 1002.4
20260504220017 80 191 8.0 17.0 0.00 0.00 0.00 50 1002.5
20260504215504 79 207 11.0 19.0 0.00 0.00 0.00 50 1002.5
20260504215005 80 207 9.0 19.0 0.00 0.00 0.00 49 1002.5
20260504214510 80 202 5.0 20.0 0.00 0.00 0.00 49 1002.6
20260504214003 80 198 8.0 20.0 0.00 0.00 0.00 49 1002.7
20260504213504 80 202 8.0 20.0 0.00 0.00 0.00 49 1002.6
20260504213009 80 220 8.0 21.0 0.00 0.00 0.00 48 1002.7
20260504212503 81 184 11.0 21.0 0.00 0.00 0.00 48 1002.9
20260504212002 80 213 8.0 21.0 0.00 0.00 0.00 48 1002.8
20260504211512 80 209 8.0 21.0 0.00 0.00 0.00 48 1002.8
20260504211003 80 171 12.0 21.0 0.00 0.00 0.00 48 1002.9
20260504210504 80 212 7.0 19.0 0.00 0.00 0.00 49 1002.9
20260504210012 80 207 8.0 19.0 0.00 0.00 0.00 49 1003.0
20260504205503 79 227 7.0 15.0 0.00 0.00 0.00 49 1003.0
20260504205007 79 226 7.0 18.0 0.00 0.00 0.00 48 1003.1
20260504204511 79 228 6.0 20.0 0.00 0.00 0.00 49 1003.2
20260504204004 79 196 10.0 21.0 0.00 0.00 0.00 48 1003.1
20260504203504 79 230 10.0 21.0 0.00 0.00 0.00 48 1003.1
20260504203022 79 193 11.0 19.0 0.00 0.00 0.00 48 1003.2
20260504202504 80 217 11.0 19.0 0.00 0.00 0.00 47 1003.3
20260504202003 79 183 12.0 19.0 0.00 0.00 0.00 47 1003.3
20260504201514 79 212 10.0 21.0 0.00 0.00 0.00 47 1003.3
20260504201005 79 208 11.0 20.0 0.00 0.00 0.00 47 1003.3
20260504200503 79 225 8.0 20.0 0.00 0.00 0.00 47 1003.5
20260504200010 80 238 8.0 17.0 0.00 0.00 0.00 48 1003.5
20260504195503 79 169 8.0 18.0 0.00 0.00 0.00 48 1003.5
20260504195005 79 216 10.0 18.0 0.00 0.00 0.00 48 1003.5
20260504194531 79 246 8.0 18.0 0.00 0.00 0.00 47 1003.6
20260504194005 80 196 6.0 19.0 0.00 0.00 0.00 48 1003.6
20260504193507 79 210 10.0 19.0 0.00 0.00 0.00 48 1003.6
20260504193018 79 242 9.0 17.0 0.00 0.00 0.00 48 1003.7
20260504192507 79 182 10.0 22.0 0.00 0.00 0.00 48 1003.8
20260504192007 78 275 7.0 22.0 0.00 0.00 0.00 48 1003.7
20260504191519 78 243 10.0 20.0 0.00 0.00 0.00 48 1003.8
20260504191003 78 200 8.0 19.0 0.00 0.00 0.00 49 1003.9
20260504190503 78 218 10.0 21.0 0.00 0.00 0.00 49 1003.9
20260504190007 78 232 11.0 26.0 0.00 0.00 0.00 49 1003.9
20260504185504 78 182 12.0 26.0 0.00 0.00 0.00 48 1003.9
20260504185004 78 221 10.0 18.0 0.00 0.00 0.00 48 1003.9
20260504184518 78 220 9.0 17.0 0.00 0.00 0.00 48 1003.9
20260504184004 78 173 10.0 25.0 0.00 0.00 0.00 50 1003.9
20260504183509 77 200 11.0 25.0 0.00 0.00 0.00 50 1004.0
20260504183018 77 199 10.0 26.0 0.00 0.00 0.00 49 1004.0
20260504182503 77 135 9.0 26.0 0.00 0.00 0.00 50 1003.9
20260504182010 77 191 13.0 20.0 0.00 0.00 0.00 51 1003.9
20260504181521 77 237 9.0 26.0 0.00 0.00 0.00 51 1004.1
20260504181010 76 227 11.0 25.0 0.00 0.00 0.00 50 1004.0
20260504180508 77 217 10.0 18.0 0.00 0.00 0.00 51 1004.1
20260504180024 77 153 8.0 19.0 0.00 0.00 0.00 51 1003.9
20260504175507 76 221 9.0 18.0 0.00 0.00 0.00 51 1004.1
20260504175005 77 222 9.0 22.0 0.00 0.00 0.00 50 1004.1
20260504174510 76 165 8.0 22.0 0.00 0.00 0.00 51 1004.1
20260504174008 76 233 9.0 19.0 0.00 0.00 0.00 50 1003.9
20260504173508 76 238 12.0 19.0 0.00 0.00 0.00 50 1003.9
20260504173022 76 184 8.0 18.0 0.00 0.00 0.00 51 1004.1
20260504172508 75 184 8.0 18.0 0.00 0.00 0.00 51 1004.2
20260504172006 76 221 8.0 20.0 0.00 0.00 0.00 51 1004.4
20260504171521 75 206 9.0 20.0 0.00 0.00 0.00 50 1004.4
20260504171009 75 214 12.0 19.0 0.00 0.00 0.00 50 1004.6
20260504170506 75 207 10.0 18.0 0.00 0.00 0.00 49 1004.5
20260504151002 71 218 11.0 23.0 0.00 0.00 0.00 52 1004.2
20260504150502 71 187 9.0 25.0 0.00 0.00 0.00 53 1004.3
20260504141004 68 234 14.0 23.0 0.00 0.00 0.00 53 1004.9
20260504140509 68 236 10.0 20.0 0.00 0.00 0.00 54 1004.9
20260504130501 66 190 11.0 22.0 0.00 0.00 0.00 56 1005.2